Total_Precipitation_Accumulation
0.05 0.10 0.15 0.16 0.17 0.15 0.12 0.10 0.20 0.20 0.24 0.25 0.22 0.12 0.10 0.08 0.05 0.05 0.05 0.05 0.05 0.05 0.05 0.05 0.06 0.07 0.13 0.19 0.22 0.32 0.55 0.69 0.60 0.43 0.35 0.28 0.24 0.24 0.29 0.39 0.45 0.58 0.73 0.82
0.08 0.10 0.11 0.12 0.16 0.15 0.10 0.08 0.07 0.09 0.15 0.15 0.18 0.15 0.11 0.09 0.08 0.08 0.08 0.08 0.08 0.07 0.08 0.08 0.09 0.09 0.10 0.13 0.18 0.30 0.48 0.65 0.63 0.48 0.36 0.27 0.25 0.29 0.41 0.48 0.54 0.64 0.74 0.74
0.14 0.15 0.12 0.18 0.17 0.14 0.11 0.10 0.10 0.13 0.15 0.15 0.13 0.13 0.15 0.17 0.15 0.12 0.14 0.14 0.12 0.10 0.09 0.10 0.13 0.15 0.16 0.16 0.18 0.30 0.47 0.61 0.66 0.60 0.49 0.42 0.36 0.40 0.50 0.55 0.61 0.67 0.68 0.69
0.18 0.19 0.25 0.19 0.15 0.18 0.17 0.20 0.20 0.19 0.17 0.18 0.17 0.16 0.18 0.19 0.16 0.13 0.13 0.16 0.17 0.13 0.13 0.14 0.14 0.19 0.22 0.24 0.26 0.35 0.50 0.64 0.70 0.69 0.67 0.69 0.62 0.60 0.63 0.68 0.71 0.74 0.70 0.72
0.23 0.24 0.28 0.25 0.21 0.25 0.27 0.26 0.26 0.27 0.25 0.24 0.22 0.22 0.23 0.20 0.18 0.16 0.15 0.15 0.18 0.20 0.19 0.19 0.20 0.22 0.25 0.28 0.35 0.44 0.55 0.69 0.79 0.84 0.89 0.88 0.84 0.85 0.92 0.97 0.92 0.89 0.88 0.90
0.31 0.36 0.38 0.37 0.31 0.28 0.30 0.41 0.34 0.35 0.33 0.27 0.25 0.34 0.31 0.27 0.28 0.24 0.18 0.17 0.18 0.18 0.19 0.22 0.23 0.26 0.35 0.44 0.57 0.71 0.80 0.89 1.04 1.20 1.32 1.35 1.30 1.23 1.18 1.21 1.10 1.03 0.97 0.97
0.42 0.51 0.42 0.34 0.32 0.27 0.48 0.63 0.46 0.45 0.42 0.38 0.42 0.45 0.40 0.31 0.27 0.26 0.22 0.18 0.18 0.17 0.17 0.20 0.22 0.31 0.46 0.61 0.78 0.88 0.99 1.08 1.26 1.52 1.64 1.55 1.50 1.40 1.31 1.31 1.31 1.27 1.15 1.11
0.57 0.69 0.68 0.40 0.40 0.54 0.67 0.59 0.56 0.52 0.49 0.48 0.46 0.47 0.47 0.40 0.30 0.25 0.23 0.20 0.19 0.19 0.18 0.22 0.29 0.43 0.63 0.77 0.84 0.93 1.09 1.26 1.45 1.63 1.58 1.44 1.59 1.56 1.53 1.58 1.54 1.46 1.38 1.28
0.70 0.80 0.64 0.47 0.56 0.69 0.66 0.61 0.56 0.51 0.48 0.40 0.39 0.43 0.41 0.33 0.26 0.21 0.19 0.20 0.21 0.25 0.29 0.31 0.41 0.61 0.82 0.89 0.96 1.01 1.07 1.21 1.35 1.43 1.53 1.59 1.60 1.55 1.56 1.60 1.62 1.54 1.48 1.40
0.74 0.80 0.70 0.58 0.55 0.52 0.47 0.45 0.46 0.43 0.38 0.35 0.33 0.32 0.28 0.25 0.22 0.18 0.16 0.18 0.21 0.27 0.38 0.47 0.58 0.72 0.85 0.87 0.88 0.88 0.90 0.94 1.06 1.23 1.34 1.46 1.67 1.73 1.72 1.67 1.68 1.67 1.57 1.47
0.76 0.86 0.80 0.73 0.59 0.48 0.45 0.41 0.44 0.45 0.39 0.37 0.35 0.31 0.26 0.23 0.21 0.18 0.16 0.20 0.26 0.33 0.42 0.50 0.63 0.74 0.77 0.81 0.89 0.95 0.96 0.96 0.99 1.08 1.25 1.36 1.51 1.61 1.62 1.64 1.46 1.39 1.30 1.25
0.68 0.65 0.66 0.71 0.62 0.45 0.42 0.45 0.51 0.58 0.53 0.43 0.36 0.34 0.30 0.25 0.21 0.17 0.16 0.21 0.30 0.40 0.49 0.57 0.68 0.81 0.86 0.94 1.03 1.10 1.09 1.04 1.04 1.09 1.23 1.34 1.41 1.38 1.21 1.14 0.95 0.84 0.82 0.78
0.40 0.44 0.52 0.55 0.55 0.48 0.44 0.47 0.54 0.59 0.53 0.39 0.31 0.31 0.29 0.22 0.19 0.19 0.19 0.23 0.35 0.48 0.58 0.64 0.71 0.84 0.97 1.09 1.17 1.26 1.22 1.12 1.05 1.00 1.07 1.14 1.25 1.40 1.44 1.21 0.96 0.79 0.69 0.61
0.39 0.47 0.54 0.51 0.53 0.47 0.45 0.47 0.44 0.39 0.37 0.31 0.26 0.25 0.23 0.18 0.15 0.16 0.20 0.27 0.35 0.44 0.53 0.60 0.69 0.78 0.91 1.06 1.15 1.19 1.19 1.08 0.98 0.99 1.02 1.05 1.12 1.25 1.42 1.45 1.24 0.93 0.79 0.67
0.41 0.43 0.48 0.47 0.45 0.47 0.50 0.48 0.44 0.37 0.31 0.28 0.24 0.20 0.16 0.14 0.15 0.18 0.23 0.32 0.43 0.49 0.52 0.59 0.70 0.77 0.92 1.08 1.15 1.12 1.08 1.00 0.93 0.96 0.99 0.98 1.04 1.13 1.23 1.31 1.24 1.09 0.91 0.71
0.47 0.41 0.42 0.45 0.41 0.41 0.45 0.42 0.36 0.29 0.21 0.19 0.16 0.14 0.13 0.13 0.17 0.21 0.29 0.46 0.67 0.71 0.66 0.68 0.72 0.76 0.94 1.12 1.16 1.13 1.03 0.85 0.79 0.85 0.90 0.92 0.98 1.05 1.09 1.15 1.15 1.09 0.97 0.74
0.45 0.42 0.40 0.41 0.36 0.34 0.31 0.28 0.25 0.22 0.20 0.19 0.16 0.13 0.12 0.15 0.22 0.29 0.42 0.54 0.65 0.66 0.68 0.75 0.72 0.72 0.88 1.04 1.10 1.07 0.98 0.83 0.63 0.62 0.71 0.78 0.87 0.95 0.99 1.00 1.04 1.03 0.89 0.63
0.38 0.32 0.28 0.28 0.29 0.29 0.28 0.24 0.19 0.16 0.15 0.16 0.17 0.18 0.20 0.28 0.42 0.56 0.67 0.71 0.68 0.59 0.59 0.64 0.61 0.64 0.80 0.86 0.91 0.97 0.92 0.84 0.68 0.60 0.63 0.68 0.76 0.87 0.89 0.87 0.87 0.86 0.76 0.57
0.26 0.20 0.17 0.16 0.15 0.16 0.18 0.18 0.16 0.13 0.12 0.14 0.18 0.24 0.30 0.41 0.56 0.70 0.78 0.89 0.92 0.80 0.64 0.56 0.52 0.57 0.71 0.73 0.76 0.88 0.88 0.80 0.69 0.62 0.64 0.62 0.66 0.77 0.78 0.75 0.73 0.68 0.62 0.55
0.21 0.18 0.14 0.11 0.09 0.09 0.09 0.09 0.10 0.10 0.12 0.16 0.22 0.29 0.38 0.53 0.71 0.84 0.90 0.93 0.96 0.92 0.74 0.60 0.53 0.54 0.60 0.66 0.73 0.77 0.80 0.76 0.64 0.60 0.61 0.66 0.67 0.70 0.66 0.62 0.60 0.56 0.52 0.51
0.17 0.17 0.15 0.10 0.06 0.05 0.05 0.06 0.09 0.13 0.17 0.22 0.31 0.40 0.51 0.65 0.79 0.95 1.15 1.16 0.94 0.83 0.71 0.61 0.55 0.53 0.55 0.62 0.68 0.74 0.77 0.78 0.68 0.58 0.57 0.60 0.62 0.63 0.61 0.59 0.54 0.48 0.48 0.49
0.11 0.09 0.08 0.07 0.07 0.06 0.06 0.08 0.12 0.20 0.30 0.35 0.38 0.46 0.60 0.72 0.86 1.00 1.09 1.25 1.14 0.98 0.73 0.58 0.51 0.47 0.47 0.53 0.58 0.67 0.70 0.73 0.67 0.57 0.53 0.53 0.54 0.61 0.63 0.58 0.53 0.46 0.46 0.48
0.07 0.05 0.05 0.05 0.07 0.07 0.08 0.10 0.17 0.29 0.42 0.51 0.54 0.61 0.74 0.80 0.93 1.24 1.31 1.17 1.11 1.00 0.71 0.55 0.51 0.44 0.40 0.42 0.51 0.59 0.62 0.63 0.62 0.52 0.45 0.44 0.47 0.54 0.59 0.57 0.55 0.48 0.46 0.44
0.07 0.05 0.05 0.05 0.06 0.08 0.12 0.17 0.23 0.34 0.43 0.48 0.48 0.55 0.72 0.81 0.82 0.89 1.10 1.22 1.16 1.00 0.73 0.59 0.51 0.42 0.37 0.36 0.49 0.60 0.62 0.62 0.60 0.48 0.40 0.38 0.43 0.51 0.54 0.53 0.52 0.47 0.44 0.42
0.06 0.06 0.05 0.06 0.10 0.18 0.27 0.36 0.45 0.50 0.53 0.54 0.47 0.45 0.56 0.71 0.83 0.80 0.84 0.96 1.08 0.97 0.80 0.67 0.57 0.51 0.41 0.39 0.48 0.58 0.62 0.60 0.53 0.46 0.43 0.47 0.52 0.56 0.52 0.49 0.49 0.44 0.44 0.44
0.05 0.05 0.05 0.07 0.13 0.26 0.42 0.58 0.73 0.76 0.77 0.76 0.63 0.50 0.51 0.57 0.63 0.68 0.74 0.80 0.86 0.87 0.79 0.74 0.64 0.58 0.52 0.50 0.53 0.59 0.64 0.67 0.58 0.53 0.54 0.60 0.60 0.58 0.56 0.50 0.44 0.44 0.43 0.40
0.05 0.05 0.06 0.09 0.18 0.31 0.48 0.64 0.81 0.86 0.86 0.89 0.77 0.57 0.49 0.52 0.54 0.59 0.66 0.74 0.76 0.78 0.77 0.73 0.66 0.58 0.53 0.52 0.54 0.57 0.61 0.64 0.61 0.59 0.58 0.58 0.59 0.59 0.56 0.51 0.48 0.46 0.45 0.42